Wind_Speed
7 7 8 8 9 9 9 9 9 10 10 10 9 9 9 8 8 8 8 7 7 7 6 4 2 2 4 5 5 6 6 6 6 6 5 4 4 4 3 3 3 4 5 4 4 2 0 2 4 6 5 5 4 2 2 2 3 3 2 3 3 2 2 3 5 4 1 1 5 10 13 13 8 10 12 8 11 12 11 17 21 22 26 27 20 14 11 13
6 6 7 8 8 8 9 9 9 10 10 10 10 10 10 9 9 8 8 8 7 7 6 5 4 3 3 5 6 7 8 8 8 9 8 6 6 5 4 3 3 3 3 3 3 3 2 4 4 7 8 6 4 3 2 1 1 2 1 3 3 2 1 1 4 4 2 0 3 9 12 12 8 8 11 8 8 11 11 14 19 22 25 30 27 21 16 15
4 5 6 6 7 8 8 8 9 9 10 10 11 11 11 11 11 10 9 9 8 7 7 6 5 4 4 5 7 8 8 9 11 11 10 8 7 7 6 5 3 2 2 2 2 3 3 3 3 8 10 6 4 4 3 1 1 2 2 4 2 0 2 3 5 6 6 2 2 7 11 12 8 7 11 9 7 9 13 14 14 21 28 31 31 28 23 19
4 4 4 5 5 6 6 7 8 9 9 10 11 11 12 12 12 12 11 10 9 8 7 7 5 4 4 5 6 7 8 9 12 13 11 10 9 8 8 6 4 2 0 1 2 4 5 1 5 9 8 4 4 4 2 1 1 2 3 3 1 1 3 4 6 6 8 6 3 5 8 10 10 10 11 8 7 9 16 22 21 24 29 29 30 31 29 25
6 5 4 4 5 5 5 6 7 7 8 9 10 11 11 12 12 13 13 12 11 10 9 8 7 5 5 5 5 6 6 4 5 10 13 12 10 9 9 7 6 3 1 1 2 4 5 0 7 9 6 3 4 4 2 2 2 3 3 2 1 2 3 3 5 7 8 7 4 6 7 8 9 12 14 12 11 11 12 21 25 25 26 26 28 28 30 30
8 7 6 6 5 5 5 6 6 7 8 8 10 11 11 12 12 13 13 13 12 11 11 9 8 7 6 5 6 6 6 3 1 6 11 13 11 10 10 9 8 5 3 3 3 4 5 0 7 8 4 3 4 3 3 5 4 3 3 2 3 6 4 3 4 6 8 7 5 6 7 7 8 10 14 19 24 20 15 19 19 19 22 25 26 26 29 31
9 9 9 8 7 7 7 7 7 7 8 8 9 10 11 12 12 13 13 13 13 12 12 11 9 8 7 6 7 7 11 11 7 6 10 13 12 11 10 9 9 7 5 4 3 4 5 2 5 7 5 2 4 4 3 6 6 4 2 3 4 8 8 6 5 7 7 8 7 6 7 7 9 8 7 20 34 30 27 27 23 20 20 21 23 26 29 31
11 11 11 10 10 9 9 8 9 9 9 9 10 11 12 12 12 13 14 14 14 13 13 12 11 9 8 7 7 8 13 15 11 10 11 13 13 12 11 10 10 8 7 6 5 4 4 3 3 7 4 1 4 6 5 4 6 6 3 3 4 6 9 10 9 10 8 10 9 6 8 8 10 8 8 27 38 33 32 32 29 27 23 22 23 25 28 31
13 13 13 12 11 11 11 10 10 10 10 10 10 11 12 13 13 14 14 15 15 14 14 14 13 10 8 7 7 7 10 10 8 9 11 13 15 14 13 11 10 10 9 8 6 6 5 3 3 5 5 2 5 5 6 4 4 6 4 3 4 5 7 9 9 9 8 9 8 7 10 9 8 8 15 31 34 29 30 30 31 31 29 27 26 26 28 31
16 16 15 14 14 13 12 12 11 11 11 11 11 11 13 13 14 14 15 16 16 16 16 15 13 10 8 7 6 5 6 6 6 8 10 12 14 15 15 13 11 11 10 9 8 7 5 4 4 4 4 4 5 3 5 3 1 4 3 3 6 7 7 8 7 7 7 8 8 9 10 8 5 4 11 18 14 14 17 22 28 30 31 32 30 30 29 31
18 18 18 17 16 15 14 13 13 12 12 12 12 12 13 14 14 15 15 16 16 17 18 17 14 10 9 7 8 7 9 8 7 8 9 11 13 15 15 15 13 11 11 10 9 8 7 6 4 2 3 3 4 3 4 3 1 2 2 5 7 8 9 10 9 7 7 7 7 8 10 9 2 5 19 20 12 10 11 15 22 25 30 32 31 32 31 33
20 20 20 19 19 18 17 16 15 14 13 13 13 13 14 15 15 15 16 16 17 18 18 16 12 9 8 10 13 13 13 12 10 10 10 11 13 14 15 15 14 12 11 10 10 8 7 6 5 3 3 3 3 2 3 3 1 1 1 3 5 5 8 8 6 5 6 5 4 3 8 10 9 15 30 28 21 17 14 16 19 22 26 28 30 32 32 34
22 22 21 21 21 20 20 19 18 17 16 15 14 14 15 16 16 16 17 17 17 18 18 15 10 9 8 10 14 14 12 12 12 12 12 12 13 13 14 14 13 13 11 11 10 8 7 7 5 4 4 4 2 2 2 2 1 1 2 3 3 5 5 5 4 3 6 4 3 3 7 8 12 23 30 25 22 19 16 20 22 23 25 27 30 31 33 34
24 24 23 23 22 22 21 21 21 21 20 18 16 16 17 17 17 17 17 18 18 18 18 14 10 10 9 11 13 13 13 13 13 13 13 13 12 12 13 13 13 12 11 10 9 8 7 7 5 4 4 3 3 3 2 1 2 1 1 1 2 4 2 5 4 5 6 4 7 5 7 10 7 14 19 20 22 20 17 20 23 26 27 28 30 31 34 34
26 25 25 24 24 23 23 22 23 23 22 21 19 18 18 19 19 18 18 19 19 19 17 14 11 10 10 13 14 13 13 13 14 14 13 13 12 12 12 12 12 12 11 9 8 7 7 6 5 3 2 3 4 3 2 2 2 0 2 3 2 3 2 3 5 7 5 3 8 7 6 12 11 6 11 16 20 20 19 19 22 27 29 29 30 32 34 35
27 27 27 26 26 25 24 24 24 24 24 23 21 20 19 20 20 20 20 20 19 19 17 13 12 9 8 10 11 12 12 12 12 12 12 13 12 12 12 12 12 11 10 8 7 6 6 5 5 3 3 3 3 3 3 4 3 2 3 5 3 4 3 1 5 6 4 2 8 10 6 10 9 3 8 13 16 18 18 20 23 27 30 30 31 33 35 35
29 28 28 28 28 27 26 26 26 26 26 24 23 22 20 21 22 21 21 20 19 18 15 12 10 7 9 11 11 12 13 12 11 11 12 12 12 12 12 11 11 10 8 7 6 6 6 4 3 3 3 1 1 3 4 6 6 3 2 4 4 4 5 3 2 4 4 4 8 11 10 15 15 9 11 13 15 16 17 24 28 28 31 32 32 34 37 37
30 30 30 30 29 29 28 27 27 28 27 26 25 24 23 23 23 23 21 20 17 14 12 10 6 4 9 14 13 11 10 10 10 11 12 12 12 12 12 11 9 9 6 5 6 6 5 3 2 3 2 3 3 5 6 7 5 4 4 5 5 5 7 7 3 3 6 5 8 10 12 19 21 20 21 21 19 18 21 29 32 30 31 33 35 38 39 39
28 29 30 31 31 31 30 29 29 29 29 28 27 26 26 24 23 21 18 14 11 7 6 7 8 4 5 8 12 11 10 11 11 13 13 13 13 13 13 11 10 9 5 3 5 6 5 3 2 4 5 8 8 10 12 7 3 5 5 5 7 7 8 7 2 3 3 4 10 13 14 18 21 20 22 23 18 19 25 30 31 28 27 31 36 40 40 41
24 25 27 29 31 32 31 30 30 31 30 29 28 27 22 16 12 11 11 11 13 12 12 12 13 14 13 11 13 14 13 14 14 14 14 14 14 13 13 11 9 8 6 3 4 5 4 4 6 9 10 9 11 13 10 3 1 3 3 4 7 8 10 6 4 3 2 4 11 13 14 18 21 20 21 23 17 16 23 26 29 27 24 31 36 39 41 42
23 23 24 25 26 27 27 27 30 31 31 30 28 24 16 9 6 7 10 13 17 18 18 21 21 22 24 22 21 20 17 15 15 16 14 14 14 11 11 11 7 6 6 3 3 3 4 6 12 13 8 3 4 7 4 1 2 4 5 5 7 8 9 4 4 2 3 3 9 10 12 16 19 19 20 21 17 19 25 24 29 28 23 31 36 37 40 40
24 24 23 24 25 23 22 22 24 27 28 28 25 20 16 14 13 12 11 12 19 22 21 23 25 27 28 27 28 28 20 13 15 19 18 16 17 12 9 10 7 4 4 5 4 3 4 10 14 6 5 5 3 3 5 6 5 4 4 4 6 5 6 3 3 3 4 4 7 7 11 16 19 20 22 22 18 26 32 26 29 29 23 30 36 36 36 36
24 24 24 25 25 24 22 20 20 21 22 22 21 17 14 14 13 13 11 8 15 23 22 22 25 27 28 28 29 28 22 16 15 20 21 19 19 15 11 10 6 2 4 8 9 5 5 9 7 3 8 7 3 3 6 4 4 5 4 5 7 3 2 4 0 2 4 4 6 9 12 14 16 18 20 19 18 27 34 25 27 32 29 32 33 33 33 33
24 24 23 24 24 23 22 21 20 20 19 18 17 16 13 12 11 10 9 6 8 14 18 21 22 25 27 26 25 23 21 20 15 15 20 22 19 13 11 9 5 4 7 11 11 9 9 3 4 6 5 7 4 4 7 6 5 6 6 9 10 4 4 5 2 2 4 4 3 8 12 10 10 12 12 6 6 16 22 18 23 32 34 35 32 31 33 33
23 23 22 22 23 21 20 19 18 18 17 14 13 13 11 8 7 6 6 5 5 6 12 16 18 22 24 22 21 18 15 17 16 13 15 23 22 11 6 7 7 8 8 8 7 10 10 2 7 5 2 5 5 5 8 8 6 5 8 12 12 7 4 2 3 4 5 4 2 3 10 7 4 7 7 1 2 7 8 8 18 29 29 27 29 31 31 32
22 21 20 20 20 19 17 14 13 13 12 10 11 9 8 5 4 5 4 4 4 3 4 8 9 10 13 14 15 13 6 8 14 15 14 20 24 13 4 5 4 4 4 7 4 6 4 2 3 4 5 6 7 7 7 8 6 5 4 6 9 7 4 2 1 2 4 4 0 2 7 9 3 7 6 3 3 6 5 5 13 27 28 21 24 27 27 27
21 21 19 18 17 16 14 10 11 11 8 9 9 8 7 5 2 3 3 5 5 5 6 7 7 7 8 9 14 12 2 3 7 13 18 19 21 16 8 6 4 2 4 4 3 2 2 3 2 4 5 6 7 7 6 10 7 3 1 1 3 4 4 4 4 5 4 4 2 4 5 11 9 8 10 9 9 7 9 10 11 23 32 28 24 25 26 25
21 20 20 18 15 13 11 10 11 9 9 9 7 9 7 6 5 2 2 7 3 6 6 5 7 8 8 11 18 11 1 3 4 8 18 19 18 13 8 7 4 3 5 4 5 2 2 4 6 7 6 6 6 2 5 11 6 1 2 2 4 4 3 5 4 5 2 4 5 7 8 9 10 6 7 8 10 10 12 16 15 17 29 36 30 27 26 24
20 19 19 18 14 11 10 9 9 9 10 8 8 10 9 9 5 3 2 6 1 5 4 6 8 7 8 11 15 10 1 1 1 6 14 14 15 9 4 5 4 3 4 4 5 1 2 2 5 7 6 6 3 4 1 7 4 3 5 5 6 4 4 3 3 3 1 5 7 9 12 8 10 4 7 1 4 9 11 13 13 12 21 33 32 27 25 20
20 19 19 18 14 11 10 7 8 9 10 10 10 12 12 9 4 2 7 6 1 2 4 6 7 6 9 8 6 7 4 1 2 8 9 7 11 6 1 4 4 2 2 2 4 1 3 2 1 4 4 2 6 5 4 1 3 7 6 3 4 2 3 2 1 0 3 7 6 11 17 12 9 1 8 4 5 9 9 8 10 9 15 25 28 26 23 17
19 18 19 17 14 12 9 7 9 10 12 12 11 14 13 6 1 6 9 2 1 2 4 4 3 5 9 5 2 4 4 1 4 9 6 4 7 5 3 4 3 2 2 4 6 2 3 3 2 3 5 6 6 4 5 4 3 4 3 2 1 1 2 2 2 2 6 7 2 6 12 14 11 4 6 4 3 8 9 7 8 7 11 20 23 23 20 14
19 19 19 18 15 13 10 8 9 11 14 13 13 15 9 2 5 7 3 3 0 3 4 3 2 4 6 2 0 3 2 1 5 6 4 3 5 6 5 5 4 3 4 5 5 1 3 4 3 2 5 7 5 4 4 2 2 3 3 4 3 3 2 3 3 4 6 6 1 2 4 9 13 9 4 3 4 8 9 8 10 7 9 17 19 20 18 15
20 19 20 19 16 13 10 8 9 13 14 15 15 11 4 5 8 5 5 3 2 1 2 2 1 3 4 2 2 3 1 2 4 4 2 2 4 6 6 4 2 3 3 4 3 1 2 1 5 4 3 9 11 6 4 4 6 8 6 6 5 3 2 5 5 3 5 3 2 4 2 6 9 7 12 16 14 13 12 17 21 16 15 18 17 16 15 17
22 21 22 21 18 15 11 8 9 14 15 16 13 6 3 9 5 5 7 7 1 2 3 3 2 3 3 3 3 4 4 3 6 6 4 3 4 6 7 7 5 2 1 2 2 3 5 5 6 6 2 11 14 6 1 4 7 7 3 2 5 4 4 6 4 5 6 4 2 4 3 5 4 1 8 14 15 16 18 25 27 23 24 24 19 15 14 19
24 24 25 24 23 19 13 8 10 14 18 17 8 3 7 10 2 3 5 4 1 1 2 2 2 4 3 2 2 4 7 4 4 5 5 6 6 6 6 8 9 5 2 3 2 3 6 6 2 1 1 8 10 2 4 5 5 3 1 1 4 4 5 5 3 2 3 6 4 5 5 7 3 0 2 3 5 11 16 21 20 21 30 30 24 21 20 21
26 26 26 28 30 24 15 12 12 16 23 18 5 6 10 6 1 2 2 4 3 3 4 1 2 4 4 3 3 4 5 3 3 4 5 6 7 6 3 4 10 12 9 6 2 3 4 3 2 1 1 5 4 1 3 2 3 4 3 4 3 0 2 5 3 1 1 6 7 4 7 9 5 3 5 6 6 8 9 12 12 18 29 27 24 29 30 28
28 30 31 34 37 28 19 16 15 20 25 17 6 10 8 4 5 5 3 4 3 4 5 5 5 5 5 4 4 6 4 2 4 4 4 3 5 7 6 4 9 15 17 11 4 4 4 3 2 3 1 2 1 1 2 2 0 4 4 5 3 2 1 2 2 1 1 7 8 7 11 12 9 5 4 7 9 9 10 12 9 13 20 19 23 34 36 34
33 36 38 41 41 31 23 19 19 24 22 11 11 14 6 4 9 8 7 6 3 4 6 7 5 5 6 5 3 6 6 5 6 5 4 4 4 7 10 6 9 16 24 20 7 3 3 3 3 1 1 2 1 2 3 0 1 1 1 1 1 2 3 2 2 3 6 7 8 14 18 15 11 7 4 9 12 12 13 12 8 11 14 14 24 35 35 34
37 34 35 43 42 34 27 23 25 27 17 6 11 13 5 5 7 10 15 12 4 4 7 9 6 3 5 5 1 4 7 7 7 6 5 5 4 6 10 8 9 14 23 21 9 1 3 4 3 1 2 2 1 4 6 5 2 1 1 1 1 2 3 3 2 2 5 7 8 16 20 14 6 5 7 11 12 12 11 9 9 12 14 17 27 34 34 32
40 26 23 36 39 34 30 28 27 22 11 7 12 8 2 3 6 14 23 17 5 5 8 8 7 5 5 4 1 3 6 6 6 6 5 5 4 4 8 8 4 5 11 13 7 1 3 3 4 1 1 2 4 7 10 10 8 5 5 6 5 2 0 2 2 2 3 6 6 9 15 13 1 7 8 8 8 9 9 9 9 10 15 23 31 33 32 30
40 18 14 27 29 32 36 29 20 13 7 8 11 6 3 4 5 10 18 18 10 7 6 5 6 8 8 5 2 3 5 5 6 6 4 6 6 4 9 14 8 7 7 5 5 4 3 4 6 3 2 6 7 6 5 4 4 6 8 9 10 8 4 3 6 3 2 5 8 6 11 15 3 6 5 5 4 5 8 8 7 9 18 27 29 30 28 26
29 11 13 22 25 37 40 22 12 12 8 9 10 7 7 7 5 5 10 15 11 6 4 3 4 7 8 7 4 4 5 5 6 7 5 6 9 6 9 16 16 15 10 4 4 6 3 2 5 6 6 6 4 1 2 1 0 2 4 6 8 8 7 8 8 4 3 4 6 2 7 14 3 7 3 3 5 5 8 9 7 10 22 26 23 24 24 23
20 12 14 21 30 44 36 10 8 12 7 8 8 8 9 7 4 4 8 10 8 5 5 4 4 7 8 6 4 5 6 6 6 6 3 4 9 9 9 15 17 12 6 2 2 3 3 2 5 7 6 3 1 4 2 0 2 3 6 7 7 9 10 8 4 2 3 6 6 3 6 13 2 6 1 3 4 5 7 9 9 10 18 22 20 21 22 22
22 15 14 23 38 47 29 6 8 12 9 8 7 9 9 6 7 9 7 9 9 7 7 8 7 7 7 4 5 7 7 7 6 6 6 7 5 7 13 21 20 9 6 7 7 9 7 4 5 5 6 5 3 3 3 1 4 5 5 8 10 11 10 4 2 0 5 12 14 7 8 14 4 3 4 3 4 4 4 8 12 11 14 19 21 21 23 25
16 9 12 28 46 45 23 7 7 9 12 13 11 12 9 7 12 16 13 12 14 9 6 7 6 6 6 4 6 7 7 8 9 6 8 9 4 3 13 26 26 16 13 11 11 14 9 5 8 8 8 9 10 9 4 3 5 5 3 9 13 15 17 10 4 6 10 14 14 9 12 15 10 12 14 8 7 9 5 8 12 15 17 20 22 24 27 28
10 4 4 17 35 37 25 16 8 3 8 13 10 8 12 11 9 12 13 13 15 11 4 3 3 5 7 8 8 10 11 13 11 8 8 9 3 1 6 20 23 15 10 9 13 13 4 4 13 15 14 13 14 15 5 5 6 6 6 12 15 18 21 14 8 11 9 5 8 14 18 18 16 22 25 19 18 18 11 5 9 15 21 23 24 27 30 31
8 5 6 10 17 21 20 20 15 6 5 9 6 5 13 16 8 5 10 12 15 15 6 4 5 6 8 12 13 14 17 16 14 15 17 13 5 2 1 7 11 8 4 4 9 8 1 5 14 18 21 20 19 22 14 5 8 9 9 13 15 17 19 17 18 15 5 3 9 20 23 20 17 21 27 26 22 17 14 13 12 14 18 20 22 27 29 31
10 6 12 17 12 7 11 20 21 15 11 10 8 7 12 16 12 10 11 8 9 14 9 6 11 15 17 18 15 13 15 14 13 16 18 15 8 1 1 2 5 6 3 1 3 3 2 7 12 15 20 21 20 24 22 13 8 7 9 12 14 17 21 23 24 16 8 9 16 19 23 22 17 21 28 25 18 15 16 19 18 16 17 19 22 26 29 30
14 10 12 20 14 10 21 31 27 20 18 13 9 9 13 17 17 15 10 4 3 11 14 11 14 22 27 23 16 12 10 11 13 13 13 13 9 4 3 4 3 3 3 1 1 2 2 6 11 14 17 19 19 21 24 19 11 9 10 10 12 19 22 21 20 17 17 21 18 14 20 22 18 22 23 19 19 19 19 25 26 22 25 30 31 31 32 32
16 12 9 14 14 12 22 28 20 12 15 15 10 10 14 18 17 14 10 10 8 9 14 18 21 23 22 19 15 14 15 16 18 16 12 11 8 5 5 6 2 2 2 2 1 3 4 6 10 13 12 14 17 20 22 18 15 14 13 12 18 23 17 14 16 15 16 20 17 14 17 17 18 22 21 20 25 25 21 26 30 30 35 38 34 32 34 35
21 23 21 15 8 8 12 15 12 9 10 11 11 12 14 18 18 15 13 18 20 14 14 21 25 21 14 10 12 18 24 26 24 24 23 16 7 5 5 5 4 3 3 4 2 3 4 4 6 9 10 10 14 20 19 12 7 8 12 19 28 27 17 15 18 15 13 15 17 16 14 14 17 21 19 19 24 24 21 22 26 32 37 34 29 31 37 37
18 22 25 20 6 6 9 8 10 11 9 10 16 18 17 19 21 18 14 16 24 28 24 20 18 15 10 9 17 28 34 34 32 33 34 23 9 9 11 11 10 8 6 5 3 3 4 4 5 8 9 11 15 18 15 7 3 5 14 24 27 23 20 21 22 20 17 14 13 13 13 16 19 18 18 20 20 19 19 22 26 29 29 28 30 36 39 38
Wind_Direction
5 5 4 5 4 3 1 1 359 357 356 355 357 356 355 355 356 357 357 4 12 5 356 357 349 257 229 226 224 221 219 217 219 218 214 197 190 183 153 109 86 76 69 71 67 70 321 270 224 204 197 189 201 195 142 108 132 170 210 238 244 233 216 190 192 197 304 38 161 179 190 201 195 188 202 215 214 218 227 222 222 225 225 229 228 224 230 226
357 359 0 2 1 0 360 358 357 355 352 351 351 351 350 347 346 346 344 344 351 358 352 342 333 308 256 236 234 234 232 231 232 225 215 207 203 202 187 151 123 94 75 70 55 42 330 293 233 190 184 181 191 192 188 97 123 191 211 249 248 233 208 196 219 211 212 139 157 189 196 208 213 178 192 215 210 204 223 228 225 232 233 233 232 227 231 227
346 351 353 356 356 357 355 354 355 353 351 350 348 348 347 344 341 340 339 337 335 339 342 340 326 308 291 258 244 242 242 248 251 236 216 210 213 211 202 184 164 130 83 60 44 14 342 290 214 175 174 175 177 171 173 211 209 192 209 251 246 287 277 246 237 218 212 220 144 195 196 210 227 185 190 217 218 201 220 224 211 228 237 237 235 229 229 227
322 329 337 345 347 346 346 348 348 348 348 347 346 346 345 343 340 337 337 335 332 329 327 329 324 307 296 276 257 249 252 264 260 241 218 211 216 217 213 203 191 173 99 24 15 355 354 279 182 169 171 165 167 172 185 233 210 180 213 269 47 77 271 253 238 226 225 231 203 187 184 212 227 205 201 205 226 227 227 229 222 234 243 241 239 233 229 228
303 309 316 322 326 329 331 335 337 340 342 342 342 341 342 342 338 337 336 335 333 328 321 318 319 311 294 277 265 251 250 272 254 226 213 210 216 218 217 214 212 211 232 320 339 346 357 139 171 169 175 162 167 183 199 205 191 187 218 284 58 182 243 278 248 238 228 217 194 176 176 209 211 212 215 205 227 243 236 239 241 246 250 249 249 241 231 228
297 302 305 309 313 315 320 326 330 332 335 336 336 335 336 336 335 335 334 335 334 328 321 315 314 309 296 277 268 247 230 251 249 207 207 209 217 219 220 220 220 227 239 284 315 332 349 99 180 182 179 163 186 195 178 191 199 220 224 214 228 218 233 284 252 242 225 200 192 190 201 208 197 222 225 219 234 244 249 255 256 253 251 252 253 245 234 230
291 297 301 305 307 310 315 320 323 327 331 332 332 330 329 330 331 331 331 333 333 329 322 316 313 307 297 278 268 252 239 253 264 239 218 213 219 221 225 225 222 231 236 262 288 299 326 306 201 193 178 154 198 194 168 191 204 241 239 178 232 230 230 255 257 255 229 210 220 213 227 215 207 235 233 235 243 245 251 258 261 258 255 253 249 243 239 236
288 292 295 300 304 307 311 314 319 322 326 329 330 327 324 325 327 328 328 329 331 330 323 317 313 305 298 278 267 260 253 260 263 247 233 225 228 227 229 229 228 233 234 251 268 277 302 302 227 196 195 205 185 177 165 188 202 220 227 176 226 238 236 251 262 266 246 233 240 233 242 232 226 251 258 254 255 254 255 257 258 256 255 253 249 245 239 236
286 289 291 295 297 301 305 309 313 315 321 325 327 326 322 322 324 325 326 327 328 327 323 320 312 303 294 278 266 263 263 266 259 245 238 233 232 229 229 231 232 233 237 246 253 269 282 284 268 232 239 216 173 172 174 205 214 199 205 185 215 237 243 256 262 264 255 245 244 239 249 247 246 266 269 263 263 264 260 256 254 252 251 250 248 246 241 237
284 286 288 291 292 295 298 301 304 307 313 317 320 322 320 319 321 323 324 324 324 323 323 320 312 300 288 274 251 254 277 270 254 249 243 237 232 228 230 233 235 236 239 246 247 261 268 276 290 247 231 196 179 187 187 220 242 175 199 227 239 248 252 258 256 253 257 257 246 243 258 261 253 257 265 264 260 261 257 249 248 246 246 248 246 245 243 240
281 284 286 288 289 290 292 294 296 299 302 306 312 314 314 315 317 320 320 321 321 320 321 319 312 294 282 264 228 244 283 276 260 256 244 239 233 230 233 234 237 239 240 246 247 254 259 270 283 225 204 195 192 205 212 226 233 157 211 247 244 253 261 252 249 253 249 260 249 243 264 263 224 221 245 250 250 255 252 245 245 243 244 246 245 244 241 240
276 279 282 284 287 288 290 290 291 292 294 297 300 303 306 307 310 314 314 316 316 316 318 318 309 288 281 262 246 260 281 274 265 259 246 243 238 235 236 236 238 241 242 244 246 250 254 261 268 249 222 203 193 203 211 204 212 162 196 265 240 242 260 230 221 237 212 238 247 229 267 244 200 226 243 246 251 257 253 250 248 243 243 243 243 242 240 239
272 274 277 279 282 285 287 289 290 290 290 291 293 296 298 299 303 306 307 309 311 313 315 315 304 288 280 266 267 276 277 268 263 258 250 246 243 239 238 238 239 240 240 240 244 248 248 252 259 249 214 194 198 204 180 155 205 190 164 289 271 253 253 181 165 183 187 216 185 178 280 251 201 225 242 248 250 251 247 247 249 246 244 242 242 241 240 238
271 272 273 275 277 281 284 287 289 289 290 291 292 293 294 295 298 300 301 304 307 309 311 308 297 286 273 268 279 281 270 266 261 255 251 245 241 239 237 238 238 237 239 238 242 244 244 248 245 229 205 186 166 171 169 153 210 216 181 248 253 262 235 142 159 171 178 198 172 178 274 272 233 218 234 248 247 244 241 244 248 248 245 244 243 242 241 239
272 272 273 273 275 276 279 282 284 286 288 290 292 293 294 294 295 298 299 301 304 306 304 299 290 282 272 273 279 276 268 264 260 255 250 242 237 235 234 235 234 234 236 234 236 239 238 234 221 204 163 158 154 174 225 217 180 172 256 241 197 239 245 151 176 189 202 167 173 197 254 270 274 221 220 243 242 238 239 243 245 247 248 245 245 245 243 242
271 272 273 273 274 275 277 279 280 282 284 286 290 292 294 295 296 298 298 299 301 299 296 290 282 275 269 276 274 266 262 258 258 256 247 240 233 231 232 233 232 233 235 235 237 233 226 219 211 201 177 176 180 215 263 253 221 180 242 265 234 228 271 197 166 193 238 147 184 220 257 274 275 212 210 233 235 232 238 248 247 247 248 246 246 248 246 243
269 270 272 273 273 274 275 277 279 280 282 284 286 288 292 294 294 297 297 297 296 292 289 282 278 273 261 262 262 257 256 255 258 254 245 238 230 228 230 228 227 229 230 233 230 214 209 206 202 208 191 186 200 210 251 260 248 200 192 259 255 238 265 263 175 148 181 202 215 222 242 261 264 259 250 246 241 232 237 253 255 251 249 248 248 249 247 244
270 270 271 271 271 273 274 276 278 279 281 283 286 289 291 293 296 297 294 291 287 285 284 266 242 261 259 245 241 246 250 251 254 250 240 233 227 225 224 223 225 220 212 222 218 202 201 189 209 244 206 197 197 191 222 248 255 251 234 249 268 246 239 249 243 151 158 203 235 221 231 255 263 268 267 261 250 240 246 256 260 256 251 250 250 249 248 246
277 275 273 272 271 271 273 275 276 278 280 282 285 289 293 297 297 294 288 280 265 259 268 232 200 224 276 241 235 246 253 253 253 248 237 228 224 221 217 217 218 205 185 201 201 186 191 183 198 242 228 211 202 202 224 242 257 267 262 259 269 262 253 251 180 141 175 222 243 234 238 255 264 268 270 268 252 240 252 260 260 254 247 248 249 248 247 246
285 283 280 277 275 274 275 276 275 276 278 280 282 287 293 300 301 294 281 262 251 254 264 256 244 252 266 267 260 260 262 262 260 248 236 230 220 214 212 205 203 204 199 203 179 162 183 217 229 235 232 215 206 211 229 272 338 255 254 248 254 257 266 262 114 113 168 242 253 245 247 257 265 268 269 270 262 244 249 255 257 251 242 246 248 247 246 248
288 287 286 285 282 281 284 282 277 275 276 277 280 284 286 283 280 286 286 277 270 265 264 265 264 260 261 264 265 265 264 265 262 248 236 225 207 199 203 194 189 208 199 142 114 134 166 225 239 239 236 210 205 208 210 203 187 229 236 250 256 249 263 273 98 122 157 221 259 255 259 260 262 267 267 264 261 256 251 248 255 254 247 250 250 248 248 251
289 288 290 289 288 290 294 292 285 281 279 276 277 279 276 270 267 273 284 288 279 272 267 265 262 260 262 261 260 261 257 256 257 244 233 214 200 198 191 187 201 212 154 127 141 171 198 237 244 230 109 93 85 161 196 213 205 217 224 249 262 254 274 289 89 109 163 220 268 276 277 269 264 266 265 256 246 256 258 251 256 259 253 254 254 250 248 249
290 289 290 290 290 294 297 297 294 293 288 280 275 272 268 268 267 273 277 278 281 278 270 264 262 260 260 258 256 254 242 239 248 241 231 210 197 201 193 189 206 187 159 187 196 193 210 246 255 113 123 149 133 141 183 207 207 209 204 233 250 241 272 267 72 106 185 226 287 294 281 268 262 258 260 255 240 254 263 261 260 260 256 254 255 254 250 249
290 290 292 291 291 294 296 297 296 296 293 284 275 268 265 266 263 275 281 266 276 277 266 260 256 255 255 254 252 244 234 235 240 236 225 206 191 195 203 197 189 203 211 203 201 218 232 236 86 97 150 182 172 162 188 209 216 212 212 229 245 243 227 244 347 346 233 218 278 295 285 262 238 237 250 254 227 253 267 269 264 262 258 255 255 254 252 252
290 290 293 291 291 295 296 296 293 291 291 285 275 264 259 258 254 278 291 273 257 259 262 255 246 247 248 247 243 233 229 236 235 229 214 202 192 181 189 189 196 228 214 178 193 238 248 167 112 118 141 181 190 200 203 210 221 224 220 228 244 262 254 226 26 339 280 247 207 319 305 286 184 200 234 240 232 258 262 263 270 271 265 255 251 249 247 252
293 294 294 291 292 294 293 292 285 285 287 279 269 252 242 236 247 296 299 275 246 202 215 221 220 229 229 231 221 205 222 245 232 225 208 201 198 188 177 172 195 247 169 143 191 246 250 108 112 149 153 173 210 231 203 189 220 241 219 228 240 251 258 223 147 268 274 280 278 32 303 288 226 187 208 204 231 257 252 242 269 276 274 260 253 251 245 249
296 297 298 295 295 295 291 279 271 275 267 260 252 226 224 213 197 348 328 277 246 172 156 179 187 192 200 201 178 169 224 215 193 205 198 196 196 196 210 185 168 216 149 143 214 226 127 111 110 155 161 180 217 239 186 169 209 244 80 91 184 190 213 201 195 233 271 314 287 187 229 275 272 211 209 225 227 240 256 256 257 267 271 268 262 259 255 252
295 298 300 299 301 301 291 270 263 258 239 241 228 203 194 164 147 79 299 272 243 133 142 168 174 189 189 174 172 173 303 145 152 192 188 189 188 191 225 217 180 167 163 188 221 211 95 154 171 166 175 204 215 260 159 175 206 293 79 75 109 126 157 164 202 240 276 322 268 190 182 264 275 195 192 240 234 231 245 252 250 250 261 267 266 265 263 258
290 295 298 298 303 305 292 271 250 236 226 216 196 188 166 148 143 77 237 259 225 122 143 166 173 186 164 159 186 206 239 145 198 173 173 185 187 184 237 212 163 135 168 226 241 280 62 185 189 167 185 210 179 39 76 198 207 135 132 94 87 87 86 121 239 248 238 274 249 179 166 241 278 172 141 140 214 223 236 246 251 246 253 262 266 264 262 258
284 289 291 293 300 298 290 268 232 221 207 193 184 170 150 144 145 215 229 243 263 118 126 159 175 167 150 151 206 222 213 240 120 141 154 179 188 183 129 154 131 140 180 276 260 234 89 103 199 200 205 147 105 72 23 15 123 139 148 110 96 112 94 109 246 139 259 259 222 182 181 211 273 171 142 152 171 199 216 232 249 255 255 262 265 261 258 251
276 278 283 289 292 289 285 255 227 211 192 186 171 155 149 138 147 230 231 245 359 172 133 159 169 148 163 170 204 188 191 229 147 158 164 161 178 176 149 152 138 171 221 252 246 213 135 164 199 202 171 119 106 91 56 57 118 153 162 157 196 223 160 174 173 150 243 255 187 180 190 202 239 233 143 150 173 199 211 222 238 242 251 261 264 261 255 236
270 271 276 282 282 283 282 256 228 203 189 179 163 154 149 189 232 224 212 58 119 196 149 159 165 170 185 200 26 153 155 200 171 181 184 156 185 187 198 201 165 193 233 222 227 194 189 201 149 143 169 167 160 116 99 97 174 202 176 164 231 269 264 247 222 188 235 252 121 119 186 214 241 250 219 211 219 221 223 229 236 235 251 262 263 262 253 220
268 264 266 274 279 277 273 259 220 198 187 171 164 152 132 241 234 180 159 182 218 166 107 117 116 151 158 159 202 160 154 205 164 180 195 159 202 212 238 254 189 261 256 183 205 214 244 240 140 163 202 190 190 182 190 189 178 193 181 172 213 231 257 257 245 242 258 257 140 129 165 241 263 258 223 221 221 216 217 228 237 243 251 258 260 262 247 212
266 260 258 265 271 264 260 253 207 194 184 168 163 142 167 234 234 126 177 204 227 39 65 67 99 136 156 182 199 176 203 212 154 170 193 164 199 221 226 223 208 258 340 155 210 189 244 267 171 172 161 175 190 201 125 121 150 192 183 174 227 207 216 252 263 274 290 305 218 167 190 244 275 291 209 216 219 216 221 231 239 247 251 253 255 252 230 209
261 258 252 255 257 251 248 233 197 188 179 167 160 170 207 227 216 125 200 188 139 55 57 19 123 152 212 219 204 215 226 226 140 158 192 186 205 207 195 201 191 172 151 200 212 167 241 267 168 110 38 165 182 170 81 114 148 180 90 171 243 216 212 255 296 299 312 312 264 187 220 249 246 91 176 162 198 212 226 237 239 244 248 249 250 248 234 221
256 252 243 245 249 247 238 220 196 185 180 166 153 226 224 239 123 141 209 156 164 148 118 250 176 170 230 212 207 226 219 223 152 170 207 209 228 214 174 200 185 179 188 190 180 180 231 272 122 96 283 178 191 144 133 184 172 148 167 198 200 45 227 239 263 78 103 279 269 218 250 270 264 220 179 159 194 207 220 232 223 231 242 244 246 248 245 240
249 247 239 239 245 244 230 216 197 183 178 167 188 226 225 239 191 184 182 142 151 145 156 220 201 178 219 217 207 191 172 200 176 181 208 200 229 196 174 227 192 187 204 205 217 230 222 268 194 175 218 180 301 3 103 328 110 139 192 196 133 66 317 244 264 333 252 265 274 266 269 277 274 258 158 163 209 222 223 224 210 225 240 241 242 246 247 246
244 245 240 239 243 238 220 205 187 180 176 171 221 228 222 209 191 179 169 157 153 164 187 227 209 173 209 222 203 164 166 189 166 176 213 198 221 176 160 204 194 193 209 209 224 260 194 246 237 181 16 76 3 262 149 77 310 95 273 225 115 200 186 164 210 247 253 259 275 279 280 276 257 241 162 176 203 216 224 219 204 224 233 232 239 243 245 247
240 236 237 238 235 227 215 196 180 179 175 182 227 228 227 213 197 190 190 184 174 178 203 230 221 206 217 202 165 159 181 194 167 178 215 197 213 174 162 189 195 201 207 198 202 249 160 232 249 18 350 75 91 234 191 179 177 34 311 208 287 268 189 180 189 206 246 255 275 284 284 276 240 181 173 186 196 206 214 208 206 223 225 224 234 240 243 245
230 225 238 237 227 218 206 186 177 180 182 209 222 221 207 212 217 214 208 202 189 189 214 230 212 220 229 191 193 193 197 219 194 194 221 197 216 207 176 181 174 194 199 187 200 223 107 224 236 123 309 229 195 202 198 192 175 171 197 184 181 195 99 281 245 183 234 248 256 272 277 276 247 120 155 168 177 195 194 196 207 217 225 228 233 237 240 243
222 220 241 229 216 205 190 175 177 189 199 225 227 225 212 217 224 219 216 216 220 219 224 229 211 224 230 215 222 182 190 231 210 208 233 203 219 230 186 189 168 124 134 163 215 211 154 207 221 187 201 227 224 203 190 205 179 177 189 182 183 178 155 218 233 199 182 239 237 236 268 273 264 102 120 132 149 189 181 195 207 208 224 230 233 235 238 242
218 225 229 208 198 191 181 172 191 196 200 223 224 218 208 214 219 201 206 213 222 238 240 234 220 225 229 224 213 176 187 221 206 210 237 218 221 223 186 186 171 143 138 156 205 198 154 154 216 225 223 228 248 91 106 289 323 189 217 197 186 180 180 203 221 211 174 227 248 233 268 270 256 92 90 137 159 189 188 197 202 207 224 231 234 236 240 244
220 237 225 200 194 186 178 175 208 196 218 235 223 219 205 206 223 197 190 198 204 215 219 220 211 218 229 221 197 188 196 211 203 194 227 247 230 227 199 175 162 149 146 161 171 156 125 150 219 238 250 252 59 88 109 231 151 194 230 206 190 199 202 206 222 221 189 214 222 180 243 260 268 77 307 233 173 196 202 204 206 210 225 233 235 238 243 246
225 230 207 193 191 185 178 189 204 200 226 232 232 235 218 221 235 219 194 186 194 197 208 221 216 216 225 199 197 208 192 206 222 196 212 246 233 210 194 175 166 173 198 189 174 165 167 194 202 219 249 250 235 190 166 178 197 218 225 196 197 207 208 221 335 246 235 232 221 200 237 251 267 47 266 210 163 213 197 196 217 221 222 228 234 238 244 247
224 217 187 188 190 189 194 218 205 206 217 218 227 228 223 241 238 231 226 213 211 208 211 226 213 201 210 195 214 222 194 213 236 213 213 238 237 186 192 183 180 194 211 202 179 170 178 198 188 202 227 224 233 238 207 149 191 221 219 191 195 201 203 209 212 212 232 233 219 215 242 254 278 285 268 249 241 255 220 179 212 229 230 230 234 241 246 249
218 194 178 188 195 206 226 242 243 246 215 216 224 218 222 238 244 235 229 225 226 223 229 267 210 195 213 209 223 236 223 223 230 228 234 234 213 49 205 196 195 203 215 206 182 170 173 210 197 211 227 224 238 251 240 115 159 200 199 191 197 205 205 205 216 224 225 216 214 230 242 253 268 273 273 271 267 268 266 234 225 233 236 236 240 249 253 253
228 187 170 182 202 222 242 248 247 255 213 205 197 194 218 227 243 233 209 213 220 212 217 265 222 212 223 216 223 237 233 226 223 231 243 242 224 19 338 214 219 235 247 207 189 174 160 228 213 223 234 234 244 253 249 189 182 204 198 193 203 209 206 210 224 222 169 113 237 240 243 252 258 262 269 272 270 272 277 275 264 251 246 244 250 259 259 255
238 217 196 196 200 205 222 231 230 226 221 209 194 204 220 222 229 226 209 205 204 193 196 234 224 223 230 223 223 235 234 232 231 231 241 249 243 220 48 219 226 235 238 227 201 175 190 234 225 230 240 240 244 252 254 241 216 216 208 200 205 209 207 213 224 220 180 207 239 243 247 255 258 255 260 267 272 275 277 278 274 264 259 261 264 266 263 259
241 249 224 211 210 191 201 214 219 219 220 221 214 217 226 226 226 225 209 168 190 200 200 216 223 225 230 229 227 234 233 234 239 236 237 245 237 201 217 241 224 204 205 206 221 193 194 231 232 237 246 247 247 251 253 251 248 244 230 212 214 219 213 213 226 226 217 227 242 253 257 262 263 261 264 272 279 281 283 283 280 271 266 271 272 270 268 266
244 256 259 230 222 209 208 214 218 220 219 219 221 220 227 233 232 229 210 188 204 208 198 216 231 229 230 230 227 234 235 232 240 243 234 232 223 198 219 233 199 118 187 206 231 226 217 224 232 242 253 251 250 254 254 253 253 251 249 244 241 239 226 216 229 230 225 238 252 262 268 270 264 264 267 269 273 278 280 278 276 270 269 274 275 272 271 269
260 265 276 277 249 198 206 212 208 214 216 212 219 222 227 233 231 233 230 215 218 220 202 212 229 235 233 219 213 229 233 231 236 241 240 241 229 197 210 214 173 151 195 211 205 207 221 229 233 245 256 248 245 252 255 258 263 262 258 250 247 248 243 233 235 230 221 235 249 255 261 259 253 257 258 255 260 264 265 266 265 263 268 275 275 270 269 269
279 278 276 284 286 181 206 218 202 211 216 205 214 219 220 226 225 228 239 225 221 229 227 218 222 233 232 211 218 230 233 233 237 241 245 252 243 210 220 222 206 194 192 200 204 190 195 212 223 232 245 246 244 250 256 265 285 256 241 240 244 250 252 249 248 242 231 229 242 248 248 249 253 255 252 250 250 248 249 253 257 262 272 276 270 267 270 274
Height
1574 1573 1572 1572 1571 1571 1570 1570 1569 1568 1568 1567 1567 1566 1566 1565 1565 1564 1564 1563 1562 1561 1561 1560 1560 1559 1559 1558 1558 1557 1557 1556 1556 1556 1555 1555 1555 1554 1554 1553 1553 1552 1552 1551 1551 1550 1550 1549 1549 1549 1549 1549 1549 1548 1549 1548 1548 1548 1547 1548 1546 1545 1545 1542 1543 1543 1541 1540 1541 1543 1543 1543 1543 1545 1546 1547 1547 1547 1547 1546 1545 1545 1544 1544 1544 1545 1544 1544
1573 1573 1572 1572 1571 1571 1570 1569 1569 1568 1567 1567 1566 1566 1565 1565 1564 1564 1563 1563 1562 1562 1561 1560 1559 1558 1558 1558 1557 1557 1556 1556 1555 1554 1554 1554 1554 1554 1553 1553 1552 1552 1551 1551 1550 1550 1549 1549 1548 1548 1548 1549 1549 1548 1548 1548 1548 1547 1547 1547 1544 1542 1541 1540 1541 1541 1541 1541 1541 1542 1543 1543 1542 1543 1545 1545 1544 1545 1545 1543 1544 1543 1542 1542 1542 1543 1543 1542
1573 1573 1572 1571 1571 1570 1570 1569 1568 1568 1567 1566 1566 1565 1565 1564 1563 1563 1563 1562 1561 1561 1560 1560 1559 1558 1558 1557 1557 1556 1556 1556 1554 1553 1553 1553 1553 1553 1553 1552 1552 1552 1551 1551 1550 1550 1549 1548 1547 1547 1548 1548 1548 1548 1547 1547 1547 1547 1547 1545 1541 1541 1541 1540 1541 1541 1541 1541 1541 1542 1542 1543 1542 1542 1544 1543 1542 1543 1541 1539 1541 1540 1538 1538 1539 1541 1541 1541
1572 1572 1572 1571 1571 1570 1569 1569 1568 1567 1567 1566 1565 1565 1564 1563 1563 1562 1562 1561 1561 1560 1560 1559 1558 1558 1557 1556 1556 1556 1556 1555 1552 1551 1552 1552 1552 1552 1552 1552 1551 1551 1551 1550 1550 1549 1548 1547 1547 1547 1547 1547 1548 1547 1547 1547 1546 1546 1545 1542 1541 1542 1541 1540 1540 1541 1541 1541 1541 1541 1542 1543 1541 1542 1542 1542 1541 1537 1534 1534 1535 1535 1534 1535 1536 1537 1538 1538
1571 1571 1571 1570 1570 1569 1569 1568 1568 1567 1566 1565 1565 1564 1563 1563 1562 1561 1561 1560 1560 1559 1559 1558 1558 1557 1556 1556 1556 1555 1556 1554 1549 1549 1550 1551 1551 1551 1551 1551 1551 1550 1550 1550 1549 1549 1548 1547 1546 1547 1547 1546 1547 1547 1546 1546 1545 1545 1542 1541 1542 1543 1541 1539 1540 1540 1540 1541 1541 1541 1542 1540 1540 1541 1539 1540 1536 1529 1529 1530 1531 1532 1533 1533 1533 1534 1535 1535
1570 1570 1570 1569 1569 1569 1568 1567 1567 1566 1566 1565 1564 1563 1563 1562 1561 1561 1560 1559 1559 1558 1558 1557 1557 1556 1556 1555 1555 1555 1555 1552 1548 1549 1549 1550 1550 1550 1550 1550 1550 1550 1549 1549 1549 1548 1548 1547 1547 1546 1546 1545 1546 1545 1544 1545 1545 1543 1540 1541 1542 1541 1541 1539 1540 1540 1539 1541 1540 1540 1539 1539 1539 1538 1537 1536 1530 1525 1527 1528 1529 1531 1531 1531 1531 1532 1531 1532
1569 1569 1569 1568 1568 1567 1567 1567 1566 1566 1565 1564 1563 1563 1562 1561 1561 1560 1559 1559 1558 1557 1556 1556 1556 1555 1555 1554 1554 1554 1553 1550 1548 1549 1549 1549 1549 1549 1549 1549 1549 1549 1549 1549 1548 1548 1547 1547 1546 1546 1545 1544 1544 1544 1544 1544 1544 1542 1539 1540 1540 1540 1540 1539 1539 1539 1539 1540 1539 1539 1538 1538 1538 1536 1536 1530 1523 1525 1527 1526 1528 1528 1529 1529 1528 1528 1528 1528
1568 1568 1567 1567 1567 1566 1566 1566 1565 1565 1564 1564 1563 1562 1561 1560 1560 1559 1558 1558 1557 1556 1556 1555 1554 1554 1554 1553 1553 1553 1551 1548 1548 1548 1548 1548 1548 1548 1548 1548 1548 1548 1548 1548 1547 1547 1547 1546 1546 1545 1544 1543 1542 1542 1544 1543 1543 1542 1539 1539 1539 1539 1539 1538 1539 1538 1539 1539 1538 1539 1537 1536 1536 1536 1533 1523 1519 1524 1525 1524 1525 1525 1526 1526 1525 1525 1525 1526
1567 1566 1566 1566 1565 1565 1565 1565 1564 1564 1563 1563 1562 1561 1560 1560 1559 1558 1557 1557 1556 1555 1554 1554 1553 1553 1552 1552 1552 1552 1548 1546 1547 1547 1547 1547 1547 1547 1547 1547 1547 1547 1547 1547 1547 1546 1546 1546 1545 1544 1543 1542 1542 1541 1543 1542 1540 1539 1538 1538 1539 1538 1538 1538 1538 1538 1538 1537 1538 1537 1536 1535 1534 1535 1527 1515 1517 1521 1520 1522 1522 1522 1523 1522 1523 1522 1523 1523
1566 1565 1565 1565 1564 1564 1564 1564 1563 1563 1563 1562 1561 1561 1560 1559 1558 1557 1556 1556 1555 1554 1553 1553 1552 1551 1551 1551 1551 1550 1546 1546 1546 1545 1545 1545 1546 1546 1546 1546 1546 1546 1546 1545 1545 1545 1545 1545 1544 1544 1543 1542 1542 1542 1542 1541 1539 1539 1539 1539 1538 1537 1537 1537 1536 1537 1537 1536 1537 1535 1534 1532 1533 1536 1523 1511 1515 1517 1517 1518 1517 1519 1519 1518 1519 1519 1520 1520
1564 1564 1564 1563 1563 1563 1562 1562 1562 1561 1561 1561 1560 1560 1558 1558 1557 1556 1555 1554 1553 1552 1552 1551 1550 1550 1550 1550 1550 1547 1544 1545 1545 1544 1544 1544 1544 1544 1544 1545 1544 1545 1545 1544 1544 1544 1544 1543 1543 1543 1542 1542 1542 1542 1541 1541 1540 1540 1540 1539 1538 1537 1536 1535 1535 1535 1536 1535 1534 1534 1533 1531 1534 1532 1518 1510 1513 1514 1515 1515 1515 1515 1515 1515 1516 1516 1517 1517
1563 1563 1562 1562 1562 1561 1561 1561 1560 1560 1560 1559 1559 1558 1557 1556 1555 1555 1554 1553 1552 1551 1550 1549 1549 1548 1548 1548 1546 1544 1543 1544 1543 1543 1543 1543 1543 1543 1543 1543 1543 1543 1543 1544 1543 1543 1543 1543 1543 1542 1541 1541 1541 1541 1540 1540 1541 1540 1540 1538 1535 1535 1534 1532 1533 1534 1534 1534 1533 1535 1531 1525 1527 1520 1508 1509 1512 1512 1513 1513 1512 1512 1512 1513 1512 1513 1513 1513
1561 1561 1561 1561 1560 1560 1560 1559 1559 1558 1558 1558 1557 1557 1556 1554 1554 1553 1552 1551 1550 1549 1548 1548 1547 1547 1547 1545 1543 1542 1542 1542 1542 1542 1542 1542 1542 1541 1542 1542 1542 1542 1542 1543 1542 1542 1542 1542 1542 1541 1541 1541 1541 1541 1540 1541 1541 1539 1540 1538 1534 1533 1530 1529 1532 1532 1533 1533 1532 1535 1526 1511 1511 1509 1504 1509 1509 1509 1511 1510 1510 1509 1509 1509 1509 1509 1509 1510
1559 1559 1559 1559 1558 1558 1558 1558 1557 1556 1556 1556 1556 1555 1554 1553 1553 1551 1551 1550 1548 1548 1547 1546 1546 1546 1545 1543 1540 1541 1540 1540 1540 1540 1540 1540 1540 1540 1541 1541 1541 1541 1541 1542 1541 1541 1541 1541 1541 1541 1540 1540 1540 1541 1540 1541 1540 1539 1539 1538 1537 1534 1527 1527 1532 1531 1531 1532 1531 1535 1527 1506 1501 1504 1505 1507 1506 1507 1508 1506 1507 1505 1506 1506 1505 1506 1505 1506
1557 1557 1557 1557 1557 1556 1556 1556 1555 1554 1554 1554 1554 1554 1553 1552 1551 1550 1549 1548 1547 1547 1545 1545 1545 1544 1544 1540 1539 1538 1538 1538 1538 1537 1538 1538 1539 1539 1539 1540 1540 1540 1540 1541 1540 1541 1540 1541 1540 1540 1540 1540 1540 1540 1538 1538 1538 1539 1537 1534 1536 1535 1526 1526 1530 1529 1528 1530 1531 1533 1526 1507 1499 1501 1503 1504 1504 1505 1505 1504 1504 1502 1502 1503 1502 1502 1501 1502
1555 1555 1555 1555 1554 1554 1554 1554 1553 1552 1552 1552 1552 1551 1551 1550 1549 1549 1547 1546 1546 1545 1544 1544 1543 1544 1542 1538 1537 1536 1536 1536 1535 1536 1536 1536 1537 1537 1538 1539 1539 1539 1539 1540 1540 1540 1540 1540 1540 1540 1540 1539 1539 1538 1536 1536 1535 1536 1536 1530 1530 1532 1527 1524 1527 1528 1528 1529 1530 1530 1521 1506 1498 1499 1500 1501 1502 1502 1502 1501 1500 1498 1498 1499 1499 1498 1497 1498
1553 1553 1553 1553 1552 1552 1552 1552 1551 1550 1549 1550 1550 1549 1549 1548 1547 1546 1545 1545 1544 1543 1543 1542 1541 1543 1540 1536 1536 1534 1533 1534 1534 1534 1534 1535 1536 1536 1537 1537 1538 1539 1538 1539 1539 1539 1539 1539 1539 1538 1538 1538 1538 1537 1540 1539 1531 1531 1536 1532 1527 1528 1526 1523 1523 1527 1529 1529 1527 1527 1522 1508 1498 1497 1498 1499 1500 1501 1500 1497 1495 1494 1494 1495 1495 1494 1492 1493
1551 1551 1550 1550 1550 1550 1550 1550 1549 1548 1547 1547 1547 1547 1547 1546 1544 1544 1543 1542 1542 1542 1541 1540 1541 1542 1537 1533 1532 1532 1531 1532 1532 1532 1532 1533 1534 1535 1536 1536 1537 1537 1538 1539 1538 1538 1539 1539 1539 1537 1537 1538 1536 1535 1539 1534 1525 1526 1530 1529 1525 1525 1525 1523 1521 1524 1527 1528 1526 1524 1521 1509 1498 1496 1496 1496 1497 1497 1495 1492 1490 1489 1489 1490 1490 1489 1487 1488
1549 1548 1548 1548 1547 1547 1548 1548 1547 1546 1546 1546 1545 1545 1544 1543 1542 1541 1540 1539 1539 1539 1538 1537 1537 1538 1534 1530 1530 1531 1530 1531 1530 1530 1531 1531 1532 1533 1534 1535 1536 1536 1537 1537 1536 1537 1538 1537 1539 1537 1533 1530 1529 1528 1527 1523 1521 1523 1525 1525 1524 1523 1520 1517 1520 1523 1525 1527 1524 1520 1516 1507 1498 1495 1492 1492 1493 1493 1491 1487 1485 1483 1483 1484 1484 1482 1482 1482
1546 1546 1545 1545 1545 1545 1545 1545 1544 1544 1543 1543 1543 1543 1542 1542 1541 1538 1537 1537 1536 1535 1535 1534 1534 1532 1531 1530 1530 1530 1529 1529 1529 1529 1529 1530 1531 1532 1533 1534 1534 1535 1535 1533 1534 1536 1537 1537 1534 1528 1521 1520 1521 1521 1521 1521 1523 1525 1526 1527 1526 1523 1517 1512 1519 1525 1526 1525 1516 1511 1511 1505 1497 1492 1489 1490 1491 1489 1486 1482 1478 1476 1477 1477 1477 1476 1476 1477
1543 1543 1543 1542 1542 1542 1543 1542 1541 1541 1541 1540 1541 1541 1541 1541 1540 1537 1535 1533 1533 1532 1532 1531 1531 1530 1528 1529 1528 1528 1527 1527 1526 1527 1527 1528 1530 1530 1530 1532 1533 1532 1531 1532 1535 1535 1537 1535 1525 1515 1514 1517 1520 1521 1523 1525 1527 1527 1526 1527 1524 1522 1517 1512 1520 1525 1526 1526 1514 1507 1510 1503 1496 1491 1485 1486 1487 1481 1476 1475 1471 1469 1471 1471 1470 1470 1470 1472
1541 1541 1540 1540 1539 1540 1540 1539 1539 1538 1538 1538 1538 1538 1538 1538 1537 1536 1535 1532 1528 1528 1529 1528 1528 1526 1526 1526 1525 1525 1526 1525 1524 1523 1524 1526 1528 1528 1528 1529 1529 1528 1529 1532 1533 1535 1536 1529 1515 1511 1516 1520 1523 1525 1526 1525 1528 1528 1527 1529 1524 1519 1515 1513 1521 1526 1526 1525 1513 1508 1510 1499 1490 1487 1479 1478 1480 1472 1466 1468 1466 1464 1466 1464 1462 1464 1466 1469
1538 1538 1538 1537 1537 1538 1538 1537 1537 1536 1536 1536 1536 1536 1536 1535 1535 1535 1535 1532 1525 1523 1524 1524 1523 1523 1522 1522 1521 1522 1522 1521 1520 1519 1521 1523 1525 1526 1526 1526 1526 1527 1529 1528 1527 1531 1531 1520 1512 1515 1518 1520 1524 1527 1527 1526 1527 1526 1526 1527 1520 1515 1516 1514 1520 1526 1526 1523 1516 1514 1511 1494 1484 1480 1471 1469 1472 1467 1462 1464 1463 1459 1459 1457 1457 1460 1462 1464
1535 1535 1535 1534 1535 1535 1534 1535 1535 1534 1534 1534 1534 1535 1534 1534 1534 1533 1533 1531 1524 1519 1519 1519 1519 1518 1517 1517 1517 1518 1518 1517 1516 1516 1517 1519 1521 1524 1523 1523 1525 1526 1524 1522 1522 1524 1519 1514 1516 1519 1519 1519 1523 1527 1527 1525 1523 1523 1524 1521 1513 1512 1517 1515 1519 1524 1521 1520 1522 1517 1499 1475 1470 1471 1464 1464 1468 1465 1461 1461 1458 1453 1452 1452 1454 1455 1457 1459
1533 1533 1533 1532 1533 1532 1533 1533 1532 1533 1532 1532 1533 1533 1533 1533 1533 1533 1533 1530 1524 1517 1515 1515 1514 1513 1512 1513 1513 1514 1515 1513 1513 1513 1514 1516 1518 1520 1520 1521 1522 1520 1518 1521 1525 1522 1515 1514 1517 1520 1521 1521 1522 1523 1523 1521 1520 1521 1520 1516 1511 1511 1516 1519 1524 1525 1518 1515 1519 1519 1497 1466 1460 1466 1460 1461 1465 1462 1461 1459 1454 1449 1447 1449 1449 1450 1452 1454
1531 1530 1530 1530 1530 1530 1531 1530 1530 1531 1530 1531 1532 1531 1533 1533 1533 1533 1532 1530 1523 1513 1511 1511 1509 1508 1508 1509 1510 1513 1514 1511 1509 1511 1512 1514 1515 1516 1518 1519 1519 1517 1517 1521 1525 1520 1515 1516 1518 1518 1521 1522 1522 1519 1517 1518 1519 1518 1516 1515 1515 1515 1518 1523 1526 1524 1516 1512 1515 1521 1511 1480 1461 1460 1457 1457 1460 1458 1458 1457 1452 1447 1443 1444 1445 1445 1448 1450
1528 1528 1528 1527 1528 1528 1528 1528 1529 1528 1529 1530 1529 1531 1532 1531 1533 1533 1531 1530 1518 1504 1504 1507 1506 1505 1505 1507 1507 1510 1511 1507 1506 1509 1510 1511 1513 1515 1515 1514 1516 1517 1518 1522 1522 1516 1513 1517 1520 1519 1519 1521 1520 1515 1512 1516 1517 1515 1518 1519 1517 1518 1522 1523 1525 1523 1516 1516 1517 1516 1518 1500 1469 1456 1453 1452 1456 1457 1456 1454 1451 1447 1442 1440 1442 1442 1444 1447
1527 1526 1525 1525 1526 1526 1526 1526 1526 1526 1528 1528 1528 1530 1530 1531 1534 1531 1535 1535 1512 1495 1499 1502 1503 1503 1503 1505 1506 1506 1506 1504 1505 1507 1508 1510 1511 1513 1513 1510 1512 1514 1516 1518 1514 1510 1511 1516 1518 1517 1519 1518 1514 1511 1511 1513 1514 1516 1522 1522 1520 1521 1523 1523 1523 1521 1520 1523 1516 1506 1517 1508 1468 1450 1455 1454 1456 1458 1454 1451 1447 1444 1441 1439 1440 1440 1441 1444
1525 1524 1524 1524 1524 1524 1524 1524 1525 1525 1526 1526 1528 1529 1529 1533 1532 1531 1543 1537 1503 1490 1498 1499 1501 1502 1501 1505 1505 1504 1504 1504 1505 1505 1507 1510 1510 1511 1511 1510 1511 1513 1515 1514 1508 1508 1512 1514 1513 1513 1515 1511 1509 1514 1515 1513 1513 1518 1523 1522 1522 1524 1524 1525 1523 1520 1525 1525 1510 1500 1511 1502 1459 1440 1456 1462 1460 1457 1451 1446 1441 1439 1439 1438 1437 1437 1438 1441
1523 1522 1522 1522 1522 1523 1522 1522 1523 1523 1524 1526 1527 1528 1530 1532 1531 1535 1543 1526 1496 1493 1499 1497 1499 1500 1500 1504 1504 1503 1504 1504 1504 1506 1508 1509 1509 1511 1510 1511 1513 1513 1514 1515 1511 1510 1512 1514 1514 1512 1509 1507 1511 1518 1519 1518 1517 1519 1522 1519 1522 1524 1524 1528 1524 1522 1526 1512 1493 1487 1494 1495 1466 1439 1445 1453 1449 1447 1444 1441 1438 1435 1436 1436 1435 1435 1436 1439
1521 1521 1520 1520 1520 1521 1521 1522 1522 1521 1524 1525 1525 1528 1530 1530 1532 1535 1526 1505 1493 1496 1496 1497 1500 1499 1499 1500 1500 1502 1504 1504 1504 1505 1506 1507 1509 1510 1510 1510 1513 1514 1515 1514 1510 1508 1512 1514 1511 1508 1508 1508 1512 1517 1520 1522 1520 1520 1518 1515 1518 1519 1518 1524 1524 1528 1523 1496 1482 1484 1485 1490 1472 1441 1437 1440 1437 1439 1438 1436 1434 1433 1434 1433 1433 1433 1433 1436
1519 1518 1518 1518 1518 1518 1519 1520 1519 1521 1522 1523 1526 1527 1528 1532 1530 1520 1508 1497 1495 1492 1490 1495 1498 1497 1499 1499 1498 1502 1503 1502 1503 1503 1503 1506 1506 1506 1504 1502 1504 1509 1509 1506 1505 1504 1505 1506 1506 1506 1507 1508 1508 1512 1519 1523 1521 1519 1515 1515 1518 1516 1515 1516 1512 1515 1507 1486 1486 1494 1490 1483 1458 1434 1436 1437 1434 1436 1434 1433 1431 1430 1432 1431 1431 1432 1431 1434
1517 1516 1515 1515 1516 1516 1517 1518 1518 1520 1520 1522 1526 1524 1528 1534 1515 1496 1497 1496 1490 1488 1488 1493 1495 1497 1499 1498 1498 1501 1501 1500 1501 1502 1502 1504 1505 1503 1500 1499 1500 1500 1499 1500 1504 1504 1500 1499 1505 1506 1503 1503 1501 1501 1507 1512 1516 1515 1509 1511 1514 1515 1520 1514 1500 1499 1492 1479 1487 1498 1493 1475 1446 1429 1430 1429 1428 1430 1430 1430 1429 1428 1430 1430 1430 1430 1430 1432
1514 1514 1513 1512 1513 1514 1514 1516 1516 1517 1519 1521 1523 1524 1531 1525 1497 1484 1491 1488 1485 1489 1491 1493 1496 1498 1497 1496 1496 1497 1496 1495 1497 1500 1502 1504 1505 1502 1498 1497 1499 1498 1498 1502 1503 1503 1498 1489 1493 1497 1493 1494 1495 1492 1494 1499 1509 1511 1504 1506 1507 1505 1509 1502 1489 1487 1482 1475 1485 1498 1486 1455 1434 1425 1419 1418 1422 1425 1427 1427 1427 1427 1428 1427 1428 1428 1429 1430
1511 1510 1510 1509 1509 1510 1511 1514 1514 1515 1518 1519 1521 1525 1521 1502 1484 1486 1488 1484 1487 1491 1492 1495 1496 1496 1496 1495 1495 1493 1490 1490 1494 1498 1499 1499 1496 1492 1489 1489 1493 1496 1499 1500 1498 1500 1497 1483 1485 1494 1491 1491 1493 1492 1494 1496 1503 1509 1508 1509 1506 1497 1494 1494 1494 1496 1497 1491 1484 1484 1465 1429 1419 1422 1417 1420 1422 1421 1425 1424 1425 1427 1424 1425 1426 1425 1427 1427
1508 1506 1506 1503 1502 1506 1510 1511 1512 1514 1515 1517 1522 1520 1501 1482 1481 1487 1483 1481 1486 1487 1491 1496 1494 1494 1495 1492 1493 1492 1489 1490 1494 1495 1494 1493 1488 1484 1484 1481 1483 1488 1488 1489 1490 1491 1491 1484 1489 1496 1492 1493 1494 1491 1495 1492 1494 1506 1509 1503 1500 1497 1492 1493 1500 1505 1511 1501 1470 1457 1447 1422 1416 1420 1415 1419 1420 1418 1422 1421 1421 1423 1420 1422 1423 1422 1423 1424
1504 1501 1499 1495 1495 1502 1506 1508 1510 1512 1513 1516 1516 1503 1484 1476 1479 1480 1478 1481 1482 1482 1488 1488 1485 1487 1488 1485 1486 1488 1489 1490 1493 1491 1487 1487 1480 1474 1479 1477 1475 1478 1475 1476 1479 1478 1479 1480 1488 1495 1491 1494 1497 1493 1495 1493 1491 1499 1500 1492 1493 1500 1498 1496 1501 1501 1503 1497 1463 1441 1439 1425 1417 1419 1416 1419 1419 1418 1418 1416 1417 1419 1418 1419 1419 1418 1419 1419
1498 1497 1493 1487 1489 1496 1502 1504 1506 1509 1512 1514 1506 1488 1476 1473 1472 1473 1476 1478 1478 1480 1484 1482 1478 1478 1479 1478 1479 1484 1488 1486 1487 1488 1482 1479 1469 1461 1468 1471 1469 1471 1467 1470 1476 1474 1476 1478 1485 1496 1494 1494 1499 1496 1493 1494 1494 1493 1491 1490 1490 1493 1496 1500 1504 1496 1491 1490 1465 1440 1433 1418 1404 1408 1414 1416 1416 1414 1412 1412 1415 1416 1415 1416 1414 1414 1416 1416
1494 1492 1484 1478 1484 1492 1496 1499 1502 1506 1509 1507 1496 1481 1472 1469 1468 1470 1472 1472 1475 1477 1477 1475 1474 1474 1473 1473 1474 1479 1484 1478 1479 1482 1474 1470 1464 1456 1458 1461 1462 1464 1464 1470 1474 1472 1476 1476 1479 1494 1499 1495 1497 1495 1489 1488 1494 1497 1493 1493 1491 1487 1487 1490 1492 1485 1478 1480 1469 1450 1433 1402 1381 1389 1398 1402 1405 1406 1407 1409 1412 1412 1410 1411 1411 1411 1413 1414
1487 1486 1475 1471 1479 1487 1491 1495 1498 1501 1500 1492 1482 1474 1469 1467 1467 1468 1467 1469 1471 1471 1470 1469 1471 1471 1470 1471 1472 1473 1476 1474 1473 1474 1468 1463 1459 1453 1453 1454 1456 1462 1464 1469 1471 1470 1477 1477 1475 1490 1501 1494 1484 1480 1473 1468 1477 1489 1488 1488 1489 1489 1488 1488 1485 1479 1476 1476 1471 1467 1442 1392 1372 1384 1388 1391 1398 1399 1403 1406 1406 1407 1406 1406 1408 1408 1410 1411
1481 1478 1470 1469 1475 1481 1486 1491 1491 1492 1489 1480 1470 1466 1467 1466 1464 1464 1465 1467 1468 1466 1466 1466 1467 1466 1464 1467 1469 1469 1472 1473 1470 1470 1465 1459 1455 1450 1449 1448 1451 1458 1465 1472 1472 1469 1473 1474 1471 1480 1488 1479 1464 1459 1460 1458 1459 1466 1469 1470 1472 1476 1482 1486 1482 1478 1481 1473 1459 1464 1447 1394 1374 1387 1387 1389 1397 1396 1399 1403 1401 1403 1403 1402 1405 1406 1407 1409
1476 1473 1467 1468 1471 1474 1479 1481 1479 1480 1478 1469 1461 1460 1462 1462 1460 1461 1463 1465 1466 1466 1466 1465 1464 1463 1460 1460 1462 1464 1467 1466 1465 1466 1461 1454 1450 1446 1444 1445 1447 1450 1456 1464 1465 1462 1465 1468 1469 1468 1463 1459 1458 1460 1463 1462 1460 1460 1461 1459 1460 1463 1467 1470 1469 1468 1476 1472 1456 1462 1454 1400 1372 1386 1390 1390 1395 1395 1397 1399 1398 1400 1399 1399 1402 1403 1405 1407
1474 1471 1469 1468 1467 1468 1472 1474 1473 1473 1468 1459 1455 1457 1458 1458 1458 1459 1460 1461 1463 1464 1464 1462 1460 1459 1457 1457 1458 1461 1461 1459 1456 1458 1457 1452 1447 1442 1443 1446 1447 1448 1451 1456 1458 1460 1465 1467 1467 1464 1454 1450 1457 1464 1465 1464 1462 1461 1458 1456 1457 1457 1453 1454 1456 1456 1460 1459 1451 1462 1459 1408 1375 1384 1390 1388 1392 1394 1395 1396 1396 1397 1397 1398 1401 1401 1403 1404
1470 1470 1470 1470 1468 1465 1465 1465 1465 1465 1461 1457 1457 1457 1456 1456 1455 1454 1455 1456 1457 1457 1456 1454 1454 1454 1454 1454 1455 1455 1455 1455 1450 1449 1451 1448 1441 1439 1441 1442 1445 1446 1445 1446 1448 1453 1459 1461 1463 1466 1463 1456 1455 1456 1459 1464 1463 1455 1451 1453 1453 1452 1452 1455 1459 1462 1457 1442 1435 1448 1442 1402 1378 1383 1387 1387 1390 1390 1392 1394 1395 1395 1396 1397 1398 1399 1400 1400
1467 1467 1468 1469 1469 1465 1458 1454 1454 1456 1456 1456 1456 1454 1455 1454 1450 1448 1450 1451 1450 1450 1449 1448 1449 1450 1450 1452 1452 1450 1450 1450 1446 1444 1444 1441 1437 1437 1438 1438 1440 1439 1437 1438 1439 1442 1446 1449 1452 1458 1460 1455 1446 1436 1436 1447 1456 1453 1449 1450 1449 1449 1451 1451 1454 1458 1448 1429 1428 1435 1419 1392 1383 1384 1381 1382 1386 1385 1387 1391 1392 1393 1393 1394 1395 1396 1396 1395
1463 1463 1465 1468 1468 1463 1456 1452 1452 1452 1451 1452 1453 1453 1453 1452 1446 1444 1447 1448 1447 1448 1449 1447 1448 1448 1448 1449 1450 1447 1446 1445 1444 1442 1439 1435 1434 1436 1437 1436 1436 1435 1435 1437 1437 1439 1440 1437 1436 1436 1435 1432 1427 1419 1418 1429 1441 1444 1444 1445 1444 1442 1442 1443 1444 1439 1428 1424 1428 1422 1405 1396 1396 1388 1378 1377 1381 1381 1382 1387 1388 1388 1388 1389 1391 1391 1390 1390
1458 1455 1456 1462 1463 1461 1459 1455 1452 1449 1447 1448 1448 1446 1446 1446 1445 1444 1445 1443 1442 1445 1448 1447 1447 1447 1446 1446 1445 1441 1438 1439 1441 1439 1433 1428 1431 1435 1437 1438 1437 1436 1436 1437 1436 1438 1438 1434 1429 1426 1421 1418 1416 1413 1413 1420 1427 1430 1434 1438 1439 1437 1439 1441 1433 1418 1417 1428 1425 1406 1398 1403 1402 1392 1380 1374 1376 1378 1380 1382 1383 1382 1383 1384 1385 1385 1384 1384
1453 1447 1445 1447 1448 1450 1451 1447 1443 1444 1443 1443 1441 1437 1437 1439 1441 1440 1439 1439 1439 1442 1445 1445 1444 1443 1439 1438 1438 1435 1433 1435 1437 1434 1430 1427 1430 1435 1436 1437 1438 1437 1437 1438 1438 1437 1436 1433 1427 1424 1421 1417 1415 1412 1410 1414 1419 1421 1424 1427 1430 1431 1432 1429 1420 1412 1416 1420 1407 1393 1395 1400 1395 1387 1377 1372 1374 1376 1376 1378 1378 1378 1378 1380 1381 1380 1378 1377
1448 1444 1442 1442 1437 1434 1434 1432 1433 1437 1438 1439 1438 1434 1433 1432 1430 1429 1432 1437 1439 1438 1438 1437 1435 1433 1431 1430 1432 1433 1434 1435 1432 1428 1428 1427 1429 1433 1434 1434 1435 1437 1437 1438 1437 1437 1435 1430 1425 1424 1421 1417 1416 1414 1409 1411 1417 1419 1419 1422 1423 1420 1417 1416 1415 1413 1411 1404 1394 1393 1396 1393 1386 1378 1373 1373 1373 1372 1372 1373 1372 1371 1371 1373 1376 1375 1372 1371
1444 1441 1439 1438 1432 1430 1429 1429 1432 1434 1434 1436 1435 1431 1429 1426 1423 1423 1424 1429 1432 1430 1430 1429 1423 1421 1423 1426 1431 1432 1430 1428 1425 1422 1423 1424 1426 1430 1431 1429 1430 1435 1438 1437 1436 1437 1435 1428 1423 1422 1421 1419 1417 1413 1410 1412 1415 1416 1418 1420 1415 1407 1408 1413 1412 1409 1407 1403 1399 1400 1402 1394 1382 1373 1372 1372 1369 1368 1369 1368 1364 1362 1361 1365 1370 1368 1365 1364
1441 1439 1438 1435 1428 1426 1426 1426 1427 1428 1428 1430 1429 1425 1424 1421 1418 1419 1417 1416 1418 1419 1419 1419 1416 1416 1420 1425 1429 1426 1420 1417 1417 1416 1417 1420 1424 1426 1427 1427 1429 1433 1437 1436 1434 1435 1434 1430 1425 1424 1425 1421 1415 1411 1411 1413 1418 1423 1423 1414 1401 1396 1399 1400 1396 1396 1400 1402 1402 1403 1401 1389 1373 1367 1368 1366 1362 1364 1364 1360 1355 1352 1353 1360 1364 1360 1357 1356
1438 1436 1436 1434 1427 1422 1421 1420 1420 1419 1417 1417 1416 1414 1413 1411 1411 1415 1415 1411 1410 1410 1410 1411 1413 1415 1419 1421 1418 1412 1408 1409 1412 1414 1416 1418 1421 1424 1425 1426 1426 1429 1432 1432 1432 1431 1431 1428 1425 1426 1426 1419 1413 1412 1413 1419 1428 1427 1412 1395 1389 1390 1390 1385 1381 1382 1386 1391 1395 1393 1384 1370 1361 1360 1361 1357 1355 1357 1355 1351 1347 1347 1352 1358 1356 1350 1348 1349